Wetterdaten: Woche 26.12.16 - 01.01.17 (KW52)
Datum Zeit Temp. Aussen Temp. o. S. +5cm Feuchte Auss BlattFeu 1 Luftdruck Regen Sonnenschein Regendauer Solar Windben Empfang
26.12.2016 00:00 9,8 C 9,9 C 8,3 C 98 % 15 lf 1023,9 hPa 0,0 l/m 0,00 h 0,20 h 2 W/m 23,2 km/h (4 Bft) 95,04 %
26.12.2016 01:00 10,0 C 10,0 C 8,3 C 97 % 7 lf 1023,7 hPa 0,0 l/m 0,00 h 0,27 h 2 W/m 25,9 km/h (4 Bft) 97,08 %
26.12.2016 02:00 10,0 C 10,0 C 8,3 C 96 % 5 lf 1023,5 hPa 0,0 l/m 0,00 h 0,00 h 2 W/m 22,7 km/h (4 Bft) 96,29 %
26.12.2016 03:00 9,9 C 9,4 C 8,3 C 97 % 15 lf 1023,1 hPa 0,0 l/m 0,00 h 0,17 h 2 W/m 22,2 km/h (4 Bft) 94,00 %
26.12.2016 04:00 9,8 C 9,4 C 8,3 C 97 % 15 lf 1022,9 hPa 0,2 l/m 0,00 h 0,27 h 3 W/m 23,6 km/h (4 Bft) 97,08 %
26.12.2016 05:00 10,0 C 9,9 C 8,3 C 98 % 15 lf 1022,4 hPa 0,0 l/m 0,00 h 0,33 h 3 W/m 28,1 km/h (4 Bft) 97,23 %
26.12.2016 06:00 10,1 C 10,0 C 8,4 C 97 % 15 lf 1022,2 hPa 0,0 l/m 0,00 h 0,77 h 2 W/m 27,1 km/h (4 Bft) 95,06 %
26.12.2016 07:00 10,3 C 10,0 C 8,9 C 97 % 15 lf 1022,3 hPa 0,0 l/m 0,00 h 0,53 h 3 W/m 26,4 km/h (4 Bft) 95,45 %
26.12.2016 08:00 10,4 C 10,0 C 8,9 C 97 % 15 lf 1022,2 hPa 0,2 l/m 0,00 h 0,43 h 5 W/m 31,7 km/h (5 Bft) 96,37 %
26.12.2016 09:00 9,9 C 9,0 C 7,9 C 96 % 15 lf 1023,1 hPa 1,8 l/m 0,00 h 0,67 h 16 W/m 37,2 km/h (5 Bft) 96,58 %
26.12.2016 10:00 7,1 C 6,6 C 5,6 C 95 % 15 lf 1025,6 hPa 0,4 l/m 0,00 h 0,90 h 47 W/m 26,9 km/h (4 Bft) 96,44 %
26.12.2016 11:00 6,4 C 6,2 C 5,3 C 95 % 15 lf 1026,3 hPa 0,4 l/m 0,00 h 0,47 h 62 W/m 18,5 km/h (3 Bft) 94,31 %
26.12.2016 12:00 6,6 C 7,2 C 5,5 C 94 % 11 lf 1026,8 hPa 0,0 l/m 0,27 h 0,03 h 120 W/m 25,5 km/h (4 Bft) 97,11 %
26.12.2016 13:00 7,6 C 9,7 C 6,3 C 91 % 0 lf 1027,1 hPa 0,0 l/m 0,97 h 0,00 h 208 W/m 27,5 km/h (4 Bft) 95,23 %
26.12.2016 14:00 8,2 C 9,4 C 6,8 C 87 % 0 lf 1027,6 hPa 0,0 l/m 0,47 h 0,00 h 105 W/m 26,2 km/h (4 Bft) 95,66 %
26.12.2016 15:00 7,6 C 7,6 C 5,1 C 76 % 0 lf 1028,8 hPa 0,0 l/m 0,03 h 0,00 h 40 W/m 23,8 km/h (4 Bft) 94,67 %
26.12.2016 16:00 6,7 C 6,3 C 4,1 C 77 % 0 lf 1030,0 hPa 0,0 l/m 0,00 h 0,00 h 11 W/m 17,6 km/h (3 Bft) 96,60 %
26.12.2016 17:00 6,0 C 5,8 C 3,6 C 78 % 0 lf 1031,1 hPa 0,0 l/m 0,00 h 0,00 h 1 W/m 17,8 km/h (3 Bft) 97,51 %
26.12.2016 18:00 5,2 C 4,6 C 2,8 C 81 % 0 lf 1031,9 hPa 0,0 l/m 0,00 h 0,00 h 5 W/m 15,7 km/h (3 Bft) 94,59 %
26.12.2016 19:00 4,5 C 4,2 C 2,3 C 84 % 0 lf 1032,7 hPa 0,0 l/m 0,00 h 0,00 h 0 W/m 15,0 km/h (3 Bft) 94,44 %
26.12.2016 20:00 4,2 C 3,9 C 2,1 C 86 % 0 lf 1032,9 hPa 0,0 l/m 0,00 h 0,00 h 0 W/m 17,4 km/h (3 Bft) 98,51 %
26.12.2016 21:00 3,8 C 3,6 C 1,7 C 86 % 0 lf 1033,3 hPa 0,0 l/m 0,00 h 0,00 h 0 W/m 19,0 km/h (3 Bft) 94,44 %
26.12.2016 22:00 3,6 C 3,5 C 1,7 C 88 % 0 lf 1033,8 hPa 0,0 l/m 0,00 h 0,00 h 0 W/m 19,5 km/h (3 Bft) 96,30 %
26.12.2016 23:00 3,7 C 3,8 C 1,8 C 87 % 0 lf 1034,1 hPa 0,0 l/m 0,00 h 0,00 h 0 W/m 21,4 km/h (4 Bft) 95,09 %
27.12.2016 00:00 3,8 C 3,7 C 1,8 C 87 % 0 lf 1034,3 hPa 0,0 l/m 0,00 h 0,00 h 0 W/m 23,1 km/h (4 Bft) 95,27 %
27.12.2016 01:00 3,4 C 3,3 C 1,7 C 88 % 0 lf 1034,6 hPa 0,0 l/m 0,00 h 0,00 h 0 W/m 24,8 km/h (4 Bft) 97,65 %
27.12.2016 02:00 3,3 C 3,3 C 1,7 C 89 % 0 lf 1035,1 hPa 0,0 l/m 0,00 h 0,00 h 0 W/m 23,9 km/h (4 Bft) 95,23 %
27.12.2016 03:00 3,2 C 3,3 C 1,7 C 90 % 0 lf 1035,6 hPa 0,0 l/m 0,00 h 0,00 h 0 W/m 23,8 km/h (4 Bft) 94,80 %
27.12.2016 04:00 3,0 C 2,9 C 1,1 C 91 % 0 lf 1035,7 hPa 0,0 l/m 0,00 h 0,00 h 0 W/m 23,0 km/h (4 Bft) 94,50 %
27.12.2016 05:00 3,0 C 3,3 C 1,7 C 92 % 0 lf 1036,3 hPa 0,0 l/m 0,00 h 0,00 h 0 W/m 21,1 km/h (4 Bft) 97,43 %
27.12.2016 06:00 3,6 C 3,7 C 2,2 C 92 % 6 lf 1037,1 hPa 0,0 l/m 0,00 h 0,13 h 0 W/m 19,7 km/h (3 Bft) 95,99 %
27.12.2016 07:00 3,6 C 3,8 C 2,1 C 93 % 5 lf 1037,8 hPa 0,0 l/m 0,00 h 0,00 h 0 W/m 18,4 km/h (3 Bft) 94,73 %
27.12.2016 08:00 3,6 C 3,7 C 2,2 C 94 % 0 lf 1038,2 hPa 0,0 l/m 0,10 h 0,00 h 17 W/m 13,3 km/h (3 Bft) 95,51 %
27.12.2016 09:00 3,6 C 4,1 C 2,5 C 94 % 0 lf 1039,2 hPa 0,0 l/m 0,10 h 0,00 h 44 W/m 13,7 km/h (3 Bft) 96,44 %
27.12.2016 10:00 3,9 C 5,3 C 2,9 C 95 % 0 lf 1039,9 hPa 0,0 l/m 1,00 h 0,00 h 122 W/m 13,7 km/h (3 Bft) 94,87 %
27.12.2016 11:00 4,9 C 10,0 C 4,0 C 95 % 0 lf 1040,5 hPa 0,0 l/m 1,00 h 0,00 h 185 W/m 15,9 km/h (3 Bft) 97,22 %
27.12.2016 12:00 6,5 C 11,4 C 5,5 C 92 % 0 lf 1040,9 hPa 0,0 l/m 1,00 h 0,00 h 317 W/m 15,4 km/h (3 Bft) 94,45 %
27.12.2016 13:00 7,5 C 12,2 C 6,4 C 88 % 0 lf 1040,7 hPa 0,0 l/m 1,00 h 0,00 h 182 W/m 18,7 km/h (3 Bft) 96,44 %
27.12.2016 14:00 8,1 C 12,0 C 6,5 C 86 % 0 lf 1040,9 hPa 0,0 l/m 0,73 h 0,00 h 117 W/m 13,8 km/h (3 Bft) 93,81 %
27.12.2016 15:00 7,7 C 7,8 C 5,3 C 84 % 0 lf 1041,4 hPa 0,0 l/m 0,00 h 0,00 h 43 W/m 13,6 km/h (3 Bft) 96,65 %
27.12.2016 16:00 6,7 C 5,8 C 3,3 C 87 % 0 lf 1041,7 hPa 0,0 l/m 0,00 h 0,00 h 12 W/m 9,6 km/h (2 Bft) 97,79 %
27.12.2016 17:00 5,5 C 4,4 C 2,1 C 89 % 0 lf 1042,0 hPa 0,0 l/m 0,00 h 0,00 h 0 W/m 8,9 km/h (2 Bft) 92,74 %
27.12.2016 18:00 4,7 C 3,8 C 1,5 C 92 % 1 lf 1042,6 hPa 0,0 l/m 0,00 h 0,00 h 0 W/m 8,0 km/h (2 Bft) 97,06 %
27.12.2016 19:00 4,2 C 3,7 C 1,5 C 93 % 3 lf 1042,9 hPa 0,0 l/m 0,00 h 0,00 h 5 W/m 10,9 km/h (2 Bft) 95,80 %
27.12.2016 20:00 4,3 C 4,4 C 2,6 C 95 % 1 lf 1043,1 hPa 0,0 l/m 0,00 h 0,00 h 5 W/m 10,6 km/h (2 Bft) 96,16 %
27.12.2016 21:00 4,7 C 4,7 C 3,0 C 96 % 0 lf 1043,7 hPa 0,0 l/m 0,00 h 0,00 h 5 W/m 8,5 km/h (2 Bft) 95,30 %
27.12.2016 22:00 4,4 C 4,3 C 2,8 C 96 % 0 lf 1044,0 hPa 0,0 l/m 0,00 h 0,00 h 5 W/m 6,9 km/h (2 Bft) 94,81 %
27.12.2016 23:00 4,5 C 4,8 C 3,3 C 96 % 0 lf 1044,0 hPa 0,0 l/m 0,00 h 0,00 h 5 W/m 10,2 km/h (2 Bft) 96,79 %
28.12.2016 00:00 4,7 C 5,0 C 3,3 C 96 % 0 lf 1044,0 hPa 0,0 l/m 0,00 h 0,00 h 5 W/m 10,1 km/h (2 Bft) 95,03 %
28.12.2016 01:00 4,6 C 4,9 C 3,3 C 96 % 0 lf 1044,0 hPa 0,0 l/m 0,00 h 0,00 h 5 W/m 7,2 km/h (2 Bft) 98,08 %
28.12.2016 02:00 4,5 C 4,9 C 3,3 C 96 % 0 lf 1044,2 hPa 0,0 l/m 0,00 h 0,00 h 5 W/m 4,7 km/h (1 Bft) 93,31 %
28.12.2016 03:00 4,4 C 4,7 C 3,3 C 96 % 0 lf 1044,3 hPa 0,0 l/m 0,00 h 0,00 h 5 W/m 2,9 km/h (1 Bft) 95,45 %
28.12.2016 04:00 4,4 C 5,0 C 3,3 C 96 % 0 lf 1044,0 hPa 0,0 l/m 0,00 h 0,00 h 5 W/m 6,7 km/h (2 Bft) 96,80 %
28.12.2016 05:00 4,4 C 4,8 C 3,3 C 96 % 0 lf 1043,8 hPa 0,0 l/m 0,00 h 0,00 h 5 W/m 9,2 km/h (2 Bft) 95,88 %
28.12.2016 06:00 4,3 C 4,4 C 3,3 C 95 % 0 lf 1043,5 hPa 0,0 l/m 0,00 h 0,00 h 5 W/m 9,3 km/h (2 Bft) 94,33 %
28.12.2016 07:00 4,2 C 4,4 C 3,1 C 95 % 0 lf 1043,9 hPa 0,0 l/m 0,00 h 0,00 h 5 W/m 5,5 km/h (1 Bft) 97,01 %
28.12.2016 08:00 4,1 C 4,3 C 2,8 C 95 % 0 lf 1044,4 hPa 0,0 l/m 0,00 h 0,00 h 7 W/m 6,9 km/h (2 Bft) 95,01 %
28.12.2016 09:00 3,9 C 4,3 C 2,8 C 95 % 0 lf 1044,3 hPa 0,0 l/m 0,00 h 0,00 h 39 W/m 9,7 km/h (2 Bft) 96,02 %
28.12.2016 10:00 4,0 C 5,7 C 3,7 C 95 % 0 lf 1044,4 hPa 0,0 l/m 0,17 h 0,00 h 90 W/m 8,7 km/h (2 Bft) 96,01 %
28.12.2016 11:00 4,7 C 7,0 C 4,8 C 95 % 0 lf 1044,3 hPa 0,0 l/m 0,30 h 0,00 h 129 W/m 11,1 km/h (2 Bft) 94,02 %
28.12.2016 12:00 5,4 C 8,3 C 5,6 C 92 % 0 lf 1044,0 hPa 0,0 l/m 0,47 h 0,00 h 155 W/m 8,5 km/h (2 Bft) 97,57 %
28.12.2016 13:00 5,9 C 7,9 C 5,9 C 87 % 0 lf 1043,6 hPa 0,0 l/m 0,40 h 0,00 h 137 W/m 9,2 km/h (2 Bft) 95,23 %
28.12.2016 14:00 5,9 C 8,9 C 4,9 C 85 % 0 lf 1043,0 hPa 0,0 l/m 0,63 h 0,00 h 123 W/m 8,5 km/h (2 Bft) 94,09 %
28.12.2016 15:00 5,8 C 6,4 C 4,5 C 84 % 0 lf 1043,0 hPa 0,0 l/m 0,07 h 0,00 h 54 W/m 4,8 km/h (1 Bft) 98,15 %
28.12.2016 16:00 5,1 C 4,4 C 2,3 C 85 % 0 lf 1042,9 hPa 0,0 l/m 0,30 h 0,00 h 18 W/m 3,8 km/h (1 Bft) 95,52 %
28.12.2016 17:00 4,3 C 3,5 C 1,9 C 86 % 0 lf 1042,8 hPa 0,0 l/m 0,00 h 0,00 h 0 W/m 2,0 km/h (1 Bft) 93,60 %
28.12.2016 18:00 3,9 C 3,7 C 2,1 C 89 % 0 lf 1042,9 hPa 0,0 l/m 0,00 h 0,00 h 0 W/m 1,2 km/h (1 Bft) 96,91 %
28.12.2016 19:00 3,7 C 3,4 C 1,9 C 90 % 0 lf 1042,9 hPa 0,0 l/m 0,00 h 0,00 h 0 W/m 1,2 km/h (1 Bft) 96,66 %
28.12.2016 20:00 3,5 C 3,3 C 2,2 C 91 % 0 lf 1043,0 hPa 0,0 l/m 0,00 h 0,00 h 0 W/m 3,1 km/h (1 Bft) 96,58 %
28.12.2016 21:00 3,1 C 1,6 C -0,1 C 92 % 1 lf 1042,5 hPa 0,0 l/m 0,00 h 0,00 h 0 W/m 0,6 km/h (0 Bft) 94,76 %
28.12.2016 22:00 1,6 C -0,3 C -2,1 C 90 % 9 lf 1042,4 hPa 0,0 l/m 0,00 h 0,00 h 2 W/m 0,0 km/h (0 Bft) 95,95 %
28.12.2016 23:00 0,3 C -1,2 C -2,9 C 91 % 15 lf 1042,2 hPa 0,0 l/m 0,00 h 0,00 h 5 W/m 0,0 km/h (0 Bft) 95,51 %
29.12.2016 00:00 -0,6 C -1,5 C -3,1 C 91 % 15 lf 1041,9 hPa 0,0 l/m 0,00 h 0,00 h 0 W/m 0,0 km/h (0 Bft) 96,65 %
29.12.2016 01:00 -1,1 C -2,5 C -3,6 C 92 % 15 lf 1041,4 hPa 0,0 l/m 0,00 h 0,00 h 5 W/m 0,0 km/h (0 Bft) 97,13 %
29.12.2016 02:00 -1,6 C -2,0 C -3,9 C 93 % 15 lf 1041,2 hPa 0,0 l/m 0,00 h 0,00 h 5 W/m 0,0 km/h (0 Bft) 94,39 %
29.12.2016 03:00 -2,0 C -3,4 C -4,4 C 94 % 5 lf 1040,7 hPa 0,0 l/m 0,00 h 0,00 h 5 W/m 0,0 km/h (0 Bft) 95,23 %
29.12.2016 04:00 -2,5 C -3,3 C -4,4 C 94 % 1 lf 1040,3 hPa 0,0 l/m 0,00 h 0,00 h 5 W/m 1,2 km/h (1 Bft) 96,68 %
29.12.2016 05:00 -2,8 C -3,2 C -4,7 C 94 % 1 lf 1039,9 hPa 0,0 l/m 0,00 h 0,00 h 0 W/m 2,7 km/h (1 Bft) 95,39 %
29.12.2016 06:00 -2,4 C -2,6 C -4,4 C 95 % 1 lf 1039,9 hPa 0,0 l/m 0,00 h 0,00 h 0 W/m 3,7 km/h (1 Bft) 95,81 %
29.12.2016 07:00 -2,5 C -4,0 C -5,0 C 95 % 1 lf 1040,1 hPa 0,0 l/m 0,00 h 0,00 h 5 W/m 0,0 km/h (0 Bft) 95,01 %
29.12.2016 08:00 -3,1 C -4,4 C -5,5 C 95 % 0 lf 1039,9 hPa 0,0 l/m 0,00 h 0,00 h 12 W/m 0,2 km/h (0 Bft) 94,89 %
29.12.2016 09:00 -3,4 C -3,6 C -4,8 C 95 % 1 lf 1039,9 hPa 0,0 l/m 1,00 h 0,00 h 58 W/m 1,8 km/h (1 Bft) 95,96 %
29.12.2016 10:00 -2,0 C -0,7 C -2,7 C 96 % 5 lf 1040,0 hPa 0,0 l/m 1,00 h 0,00 h 128 W/m 5,9 km/h (2 Bft) 96,30 %
29.12.2016 11:00 0,8 C 4,2 C -0,8 C 97 % 15 lf 1039,5 hPa 0,0 l/m 1,00 h 0,13 h 204 W/m 14,9 km/h (3 Bft) 96,89 %
29.12.2016 12:00 2,7 C 5,5 C 0,6 C 95 % 11 lf 1038,9 hPa 0,0 l/m 1,00 h 0,00 h 231 W/m 17,8 km/h (3 Bft) 96,33 %
29.12.2016 13:00 4,3 C 7,8 C 2,1 C 85 % 0 lf 1038,4 hPa 0,0 l/m 1,00 h 0,00 h 203 W/m 19,2 km/h (3 Bft) 95,16 %
29.12.2016 14:00 5,1 C 7,3 C 3,4 C 80 % 0 lf 1037,9 hPa 0,0 l/m 0,90 h 0,00 h 130 W/m 17,6 km/h (3 Bft) 94,57 %
29.12.2016 15:00 5,0 C 5,3 C 2,5 C 81 % 0 lf 1037,7 hPa 0,0 l/m 0,00 h 0,00 h 45 W/m 11,3 km/h (2 Bft) 97,24 %
29.12.2016 16:00 4,4 C 4,0 C 0,0 C 82 % 0 lf 1037,7 hPa 0,0 l/m 0,00 h 0,00 h 12 W/m 7,8 km/h (2 Bft) 95,73 %
29.12.2016 17:00 3,3 C 2,8 C -1,4 C 84 % 0 lf 1037,5 hPa 0,0 l/m 0,00 h 0,00 h 2 W/m 7,1 km/h (2 Bft) 94,02 %
29.12.2016 18:00 2,4 C 2,1 C -2,1 C 87 % 0 lf 1037,4 hPa 0,0 l/m 0,00 h 0,00 h 4 W/m 6,7 km/h (2 Bft) 97,68 %
29.12.2016 19:00 2,0 C 2,2 C -1,4 C 89 % 0 lf 1037,3 hPa 0,0 l/m 0,00 h 0,00 h 0 W/m 9,1 km/h (2 Bft) 96,04 %
29.12.2016 20:00 2,1 C 2,4 C -0,1 C 90 % 0 lf 1037,2 hPa 0,0 l/m 0,00 h 0,00 h 5 W/m 13,2 km/h (3 Bft) 96,07 %
29.12.2016 21:00 2,0 C 1,9 C -0,6 C 90 % 0 lf 1037,1 hPa 0,0 l/m 0,00 h 0,00 h 5 W/m 12,6 km/h (3 Bft) 95,60 %
29.12.2016 22:00 1,4 C 1,2 C -1,1 C 91 % 0 lf 1037,1 hPa 0,0 l/m 0,00 h 0,00 h 0 W/m 10,8 km/h (2 Bft) 94,90 %
29.12.2016 23:00 1,0 C 1,1 C -1,1 C 92 % 0 lf 1037,3 hPa 0,0 l/m 0,00 h 0,00 h 0 W/m 13,5 km/h (3 Bft) 96,54 %
30.12.2016 00:00 0,7 C 0,5 C -2,1 C 93 % 1 lf 1037,4 hPa 0,0 l/m 0,00 h 0,00 h 0 W/m 8,2 km/h (2 Bft) 97,25 %
30.12.2016 01:00 -0,0 C -0,6 C -3,9 C 93 % 5 lf 1037,3 hPa 0,0 l/m 0,00 h 0,00 h 0 W/m 5,8 km/h (2 Bft) 94,45 %
30.12.2016 02:00 -0,7 C -0,8 C -3,8 C 93 % 14 lf 1037,5 hPa 0,0 l/m 0,00 h 0,00 h 0 W/m 6,4 km/h (2 Bft) 95,59 %
30.12.2016 03:00 -0,7 C -0,6 C -3,0 C 94 % 15 lf 1037,2 hPa 0,0 l/m 0,00 h 0,00 h 0 W/m 8,5 km/h (2 Bft) 96,23 %
30.12.2016 04:00 -1,0 C -1,5 C -4,0 C 95 % 15 lf 1037,0 hPa 0,0 l/m 0,00 h 0,00 h 5 W/m 6,3 km/h (2 Bft) 97,28 %
30.12.2016 05:00 -1,5 C -1,9 C -4,6 C 95 % 6 lf 1037,2 hPa 0,0 l/m 0,00 h 0,00 h 5 W/m 4,8 km/h (1 Bft) 93,58 %
30.12.2016 06:00 -2,0 C -3,1 C -5,3 C 96 % 1 lf 1037,3 hPa 0,0 l/m 0,00 h 0,00 h 0 W/m 3,7 km/h (1 Bft) 96,72 %
30.12.2016 07:00 -2,2 C -2,1 C -4,4 C 96 % 1 lf 1037,2 hPa 0,0 l/m 0,00 h 0,00 h 0 W/m 6,2 km/h (2 Bft) 96,37 %
30.12.2016 08:00 -2,3 C -3,0 C -5,3 C 96 % 1 lf 1037,4 hPa 0,0 l/m 0,00 h 0,00 h 9 W/m 5,1 km/h (1 Bft) 95,67 %
30.12.2016 09:00 -2,1 C -1,9 C -3,5 C 96 % 1 lf 1037,6 hPa 0,0 l/m 0,60 h 0,00 h 55 W/m 8,3 km/h (2 Bft) 96,73 %
30.12.2016 10:00 -1,1 C -0,7 C -2,4 C 97 % 3 lf 1037,4 hPa 0,0 l/m 1,00 h 0,00 h 134 W/m 11,1 km/h (2 Bft) 94,45 %
30.12.2016 11:00 0,5 C 4,2 C -1,3 C 97 % 15 lf 1036,9 hPa 0,2 l/m 1,00 h 0,00 h 205 W/m 12,2 km/h (2 Bft) 95,66 %
30.12.2016 12:00 2,2 C 6,5 C 0,0 C 97 % 15 lf 1036,4 hPa 0,0 l/m 1,00 h 0,00 h 236 W/m 9,8 km/h (2 Bft) 97,76 %
30.12.2016 13:00 3,7 C 10,5 C 0,9 C 93 % 8 lf 1036,0 hPa 0,0 l/m 1,00 h 0,00 h 208 W/m 5,3 km/h (1 Bft) 96,44 %
30.12.2016 14:00 5,1 C 10,0 C 1,5 C 82 % 0 lf 1035,6 hPa 0,0 l/m 0,97 h 0,00 h 134 W/m 4,6 km/h (1 Bft) 96,94 %
30.12.2016 15:00 4,5 C 4,3 C 0,6 C 81 % 0 lf 1035,4 hPa 0,0 l/m 0,00 h 0,00 h 47 W/m 7,8 km/h (2 Bft) 96,65 %
30.12.2016 16:00 3,1 C 2,2 C -1,1 C 84 % 0 lf 1035,5 hPa 0,0 l/m 0,00 h 0,00 h 12 W/m 5,5 km/h (1 Bft) 96,89 %
30.12.2016 17:00 1,4 C -0,2 C -3,6 C 85 % 2 lf 1035,7 hPa 0,0 l/m 0,00 h 0,00 h 3 W/m 4,5 km/h (1 Bft) 95,65 %
30.12.2016 18:00 -0,0 C -0,8 C -4,4 C 88 % 10 lf 1035,6 hPa 0,0 l/m 0,00 h 0,00 h 3 W/m 3,3 km/h (1 Bft) 95,19 %
30.12.2016 19:00 -1,0 C -1,4 C -4,2 C 91 % 15 lf 1035,5 hPa 0,0 l/m 0,00 h 0,00 h 5 W/m 6,2 km/h (2 Bft) 96,04 %
30.12.2016 20:00 -0,6 C -0,3 C -3,9 C 94 % 15 lf 1035,3 hPa 0,0 l/m 0,00 h 0,00 h 0 W/m 9,3 km/h (2 Bft) 97,64 %
30.12.2016 21:00 -0,6 C -0,5 C -4,2 C 94 % 15 lf 1035,2 hPa 0,0 l/m 0,00 h 0,00 h 0 W/m 7,7 km/h (2 Bft) 93,83 %
30.12.2016 22:00 -0,9 C -0,9 C -3,7 C 94 % 15 lf 1034,9 hPa 0,0 l/m 0,00 h 0,00 h 0 W/m 8,5 km/h (2 Bft) 96,39 %
30.12.2016 23:00 -1,3 C -2,0 C -4,6 C 95 % 15 lf 1034,8 hPa 0,0 l/m 0,00 h 0,00 h 5 W/m 4,5 km/h (1 Bft) 95,53 %
31.12.2016 00:00 -2,4 C -3,8 C -6,1 C 94 % 8 lf 1034,8 hPa 0,0 l/m 0,00 h 0,00 h 5 W/m 0,0 km/h (0 Bft) 95,72 %
31.12.2016 01:00 -3,0 C -3,2 C -5,4 C 94 % 1 lf 1034,4 hPa 0,0 l/m 0,00 h 0,00 h 0 W/m 5,0 km/h (1 Bft) 96,87 %
31.12.2016 02:00 -2,7 C -3,0 C -4,8 C 95 % 1 lf 1034,2 hPa 0,0 l/m 0,00 h 0,03 h 0 W/m 8,5 km/h (2 Bft) 95,17 %
31.12.2016 03:00 -3,1 C -3,6 C -5,5 C 95 % 1 lf 1034,1 hPa 0,0 l/m 0,00 h 0,03 h 0 W/m 6,5 km/h (2 Bft) 94,09 %
31.12.2016 04:00 -3,6 C -3,9 C -6,1 C 96 % 1 lf 1033,9 hPa 0,0 l/m 0,00 h 0,00 h 0 W/m 5,9 km/h (2 Bft) 95,76 %
31.12.2016 05:00 -3,8 C -4,4 C -6,9 C 96 % 0 lf 1033,7 hPa 0,0 l/m 0,00 h 0,00 h 5 W/m 3,7 km/h (1 Bft) 97,65 %
31.12.2016 06:00 -4,6 C -5,5 C -7,2 C 96 % 0 lf 1033,5 hPa 0,0 l/m 0,00 h 0,00 h 0 W/m 0,0 km/h (0 Bft) 95,04 %
31.12.2016 07:00 -4,1 C -3,3 C -4,3 C 96 % 1 lf 1033,6 hPa 0,0 l/m 0,00 h 0,00 h 0 W/m 6,7 km/h (2 Bft) 95,11 %
31.12.2016 08:00 -2,9 C -2,5 C -3,3 C 96 % 1 lf 1033,5 hPa 0,0 l/m 0,00 h 0,00 h 11 W/m 9,8 km/h (2 Bft) 96,07 %
31.12.2016 09:00 -2,5 C -2,0 C -2,9 C 97 % 1 lf 1033,4 hPa 0,0 l/m 0,00 h 0,00 h 30 W/m 8,3 km/h (2 Bft) 95,17 %
31.12.2016 10:00 -2,0 C -1,5 C -2,1 C 97 % 2 lf 1033,2 hPa 0,0 l/m 0,00 h 0,00 h 57 W/m 9,0 km/h (2 Bft) 96,83 %
31.12.2016 11:00 -1,5 C -0,9 C -1,7 C 97 % 4 lf 1032,8 hPa 0,0 l/m 0,00 h 0,00 h 85 W/m 11,0 km/h (2 Bft) 97,50 %
31.12.2016 12:00 -1,3 C -0,7 C -1,7 C 98 % 4 lf 1032,2 hPa 0,0 l/m 0,00 h 0,03 h 66 W/m 9,3 km/h (2 Bft) 92,14 %
31.12.2016 13:00 -0,9 C 0,2 C -0,9 C 98 % 14 lf 1031,5 hPa 0,0 l/m 0,00 h 0,00 h 89 W/m 7,0 km/h (2 Bft) 98,09 %
31.12.2016 14:00 -0,3 C 0,8 C -0,7 C 98 % 15 lf 1030,8 hPa 0,0 l/m 0,00 h 0,00 h 87 W/m 9,4 km/h (2 Bft) 96,95 %
31.12.2016 15:00 0,1 C 1,1 C -0,4 C 98 % 9 lf 1030,3 hPa 0,0 l/m 0,00 h 0,00 h 47 W/m 7,7 km/h (2 Bft) 94,22 %
31.12.2016 16:00 0,4 C 1,1 C -0,6 C 96 % 0 lf 1029,9 hPa 0,0 l/m 0,00 h 0,00 h 12 W/m 6,2 km/h (2 Bft) 96,31 %
31.12.2016 17:00 0,4 C 0,8 C -0,8 C 92 % 0 lf 1029,5 hPa 0,0 l/m 0,00 h 0,00 h 1 W/m 9,9 km/h (2 Bft) 96,06 %
31.12.2016 18:00 0,4 C 0,6 C -1,2 C 91 % 0 lf 1029,0 hPa 0,0 l/m 0,00 h 0,00 h 0 W/m 8,9 km/h (2 Bft) 96,45 %
31.12.2016 19:00 0,1 C 0,6 C -1,4 C 91 % 0 lf 1028,5 hPa 0,0 l/m 0,00 h 0,00 h 0 W/m 9,2 km/h (2 Bft) 95,87 %
31.12.2016 20:00 -0,2 C -0,1 C -1,9 C 90 % 0 lf 1027,8 hPa 0,0 l/m 0,00 h 0,00 h 0 W/m 10,8 km/h (2 Bft) 96,02 %
31.12.2016 21:00 -0,9 C -1,1 C -2,9 C 91 % 0 lf 1027,2 hPa 0,0 l/m 0,00 h 0,00 h 0 W/m 8,3 km/h (2 Bft) 95,20 %
31.12.2016 22:00 -1,7 C -1,8 C -3,5 C 91 % 0 lf 1026,6 hPa 0,0 l/m 0,00 h 0,00 h 0 W/m 8,8 km/h (2 Bft) 96,04 %
31.12.2016 23:00 -2,4 C -2,6 C -4,4 C 92 % 0 lf 1026,0 hPa 0,0 l/m 0,00 h 0,00 h 0 W/m 7,3 km/h (2 Bft) 96,67 %
01.01.2017 00:00 -2,9 C -2,9 C -4,5 C 92 % 0 lf 1025,2 hPa 0,0 l/m 0,00 h 0,00 h 0 W/m 8,7 km/h (2 Bft) 95,70 %
01.01.2017 01:00 -2,5 C -2,2 C -3,3 C 94 % 0 lf 1024,5 hPa 0,0 l/m 0,00 h 0,00 h 0 W/m 12,9 km/h (3 Bft) 94,17 %
01.01.2017 02:00 -2,2 C -1,8 C -2,9 C 95 % 0 lf 1024,1 hPa 0,0 l/m 0,00 h 0,00 h 0 W/m 9,6 km/h (2 Bft) 96,77 %
01.01.2017 03:00 -2,1 C -1,7 C -2,8 C 95 % 0 lf 1023,5 hPa 0,0 l/m 0,00 h 0,00 h 0 W/m 10,6 km/h (2 Bft) 95,31 %
01.01.2017 04:00 -1,8 C -1,3 C -2,6 C 96 % 0 lf 1022,6 hPa 0,0 l/m 0,00 h 0,00 h 0 W/m 13,6 km/h (3 Bft) 96,56 %
01.01.2017 05:00 -2,1 C -1,9 C -3,0 C 96 % 0 lf 1021,9 hPa 0,0 l/m 0,00 h 0,00 h 0 W/m 13,3 km/h (3 Bft) 95,54 %
01.01.2017 06:00 -2,8 C -2,5 C -3,4 C 95 % 0 lf 1021,3 hPa 0,2 l/m 0,00 h 0,00 h 0 W/m 14,6 km/h (3 Bft) 95,18 %
01.01.2017 07:00 -3,0 C -2,5 C -3,3 C 95 % 0 lf 1020,7 hPa 0,0 l/m 0,00 h 0,00 h 0 W/m 14,6 km/h (3 Bft) 97,07 %
01.01.2017 08:00 -2,8 C -2,2 C -3,3 C 94 % 0 lf 1020,1 hPa 0,0 l/m 0,00 h 0,00 h 7 W/m 15,7 km/h (3 Bft) 95,29 %
01.01.2017 09:00 -2,7 C -2,1 C -3,0 C 93 % 0 lf 1019,5 hPa 0,0 l/m 0,00 h 0,00 h 22 W/m 17,3 km/h (3 Bft) 97,62 %
01.01.2017 10:00 -2,2 C -1,4 C -2,7 C 92 % 0 lf 1018,9 hPa 0,0 l/m 0,87 h 0,00 h 127 W/m 19,8 km/h (3 Bft) 92,70 %
01.01.2017 11:00 -1,3 C 2,5 C -2,1 C 90 % 0 lf 1018,4 hPa 0,0 l/m 1,00 h 0,00 h 202 W/m 18,7 km/h (3 Bft) 96,34 %
01.01.2017 12:00 0,0 C 3,7 C -1,1 C 85 % 0 lf 1017,9 hPa 0,0 l/m 1,00 h 0,00 h 226 W/m 11,2 km/h (2 Bft) 94,83 %
01.01.2017 13:00 1,0 C 5,9 C 0,0 C 80 % 0 lf 1017,4 hPa 0,0 l/m 1,00 h 0,00 h 202 W/m 14,4 km/h (3 Bft) 96,57 %
01.01.2017 14:00 1,3 C 4,6 C -0,0 C 78 % 0 lf 1017,3 hPa 0,0 l/m 0,50 h 0,00 h 112 W/m 20,6 km/h (4 Bft) 95,90 %
01.01.2017 15:00 0,6 C 1,0 C -0,4 C 84 % 0 lf 1017,7 hPa 0,0 l/m 0,00 h 0,00 h 32 W/m 17,1 km/h (3 Bft) 97,24 %
01.01.2017 16:00 0,4 C 0,6 C -0,7 C 89 % 0 lf 1017,2 hPa 0,0 l/m 0,00 h 0,00 h 9 W/m 17,5 km/h (3 Bft) 95,73 %
01.01.2017 17:00 0,3 C 0,8 C -0,6 C 91 % 0 lf 1017,2 hPa 0,0 l/m 0,00 h 0,00 h 0 W/m 15,9 km/h (3 Bft) 95,45 %
01.01.2017 18:00 0,6 C 1,1 C -0,6 C 91 % 0 lf 1017,2 hPa 0,0 l/m 0,00 h 0,00 h 0 W/m 15,0 km/h (3 Bft) 94,77 %
01.01.2017 19:00 0,8 C 1,1 C -0,5 C 90 % 0 lf 1017,3 hPa 0,0 l/m 0,00 h 0,00 h 0 W/m 13,1 km/h (3 Bft) 95,17 %
01.01.2017 20:00 0,8 C 1,4 C -0,2 C 90 % 0 lf 1017,2 hPa 0,0 l/m 0,00 h 0,00 h 0 W/m 14,6 km/h (3 Bft) 96,05 %
01.01.2017 21:00 1,0 C 0,9 C -0,5 C 89 % 5 lf 1017,5 hPa 0,0 l/m 0,00 h 0,57 h 0 W/m 10,1 km/h (2 Bft) 95,73 %
01.01.2017 22:00 0,8 C 0,6 C -0,6 C 91 % 15 lf 1017,8 hPa 0,2 l/m 0,00 h 0,87 h 0 W/m 5,5 km/h (1 Bft) 96,80 %
01.01.2017 23:00 0,8 C 0,6 C -0,6 C 93 % 15 lf 1018,2 hPa 0,0 l/m 0,00 h 0,07 h 0 W/m 11,0 km/h (2 Bft) 93,43 %
Min-Datum _ 31.12.16 31.12.16 31.12.16 26.12.16 26.12.16 01.01.17 - - - - 28.12.16 27.12.16
_ Min-Zeit 07:06 06:26 06:24 15:34 01:38 16:50 - - - - 02:30 17:24
Minimum _ -5,0 C -6,1 C -7,8 C 75 % 0 lf 1017,0 hPa - - - - 0,0 km/h (0 Bft) 84,78 %
Max-Datum _ 26.12.16 27.12.16 26.12.16 26.12.16 26.12.16 28.12.16 26.12.16 27.12.16 26.12.16 27.12.16 26.12.16 26.12.16
_ Max-Zeit 09:14 14:02 06:34 00:00 00:00 10:34 09:38 12:06 06:34 12:46 09:38 00:02
Maximum _ 10,6 C 16,1 C 8,9 C 98 % 15 lf 1044,6 hPa 1,8 l/m 0,07 h 0,07 h 605 W/m 52,3 km/h
W (7 Bft)
100,00 %
Durchschnitt _ 2,1 C 2,5 C 0,2 C 92 % 4 lf 1033,8 hPa #3,6 l/m #24:50 h #6:56 h 57 W/m 11,4 km/h (2 Bft) 95,82 %
© 2017 W. Hausmann